Regional Weather Roundup
Issued by NWS

Home | Current Version | Previous Version | Text Only | Print | Product List | Glossary On
Versions: 1 2 3 4 5 6 7 8 9 10 11 12 13 14 15 16 17 18 19 20 21 22 23 24 25 26 27 28 29 30 31 32 33 34 35 36 37 38 39 40 41 42 43 44 45 46 47 48 49 50
000
ASUS43 KDMX 251706
RWRIA

WEATHER ROUNDUP FOR IOWA
NATIONAL WEATHER SERVICE DES MOINES IA
1200 PM CDT SUN OCT 25 2020

NOTE: "FAIR" INDICATES FEW OR NO CLOUDS BELOW 12,000 FEET WITH NO
SIGNIFICANT WEATHER AND/OR OBSTRUCTIONS TO VISIBILITY.

* - THESE STATIONS ARE NOT NWS STATIONS...THUS NOT UNDER NWS
QUALITY CONTROL.  THEY ALSO DO NOT REPORT WEATHER SUCH
AS PRECIPITATION OR FOG.

IAZ001>003-012>014-020>022-031>034-043>046-251800-
   NORTHWEST IOWA

CITY           SKY/WX    TMP DP  RH WIND       PRES   REMARKS
CARROLL *      MIX PCPN  30  30 100 NE14      30.29R WCI  20
CHEROKEE *     LGT SNOW  27  26  94 N8        30.34R VSB 1   WCI  19
DENISON *      LGT SNOW  28  28 100 N9G15     30.31R WCI  20
LE MARS *      MIX PCPN  25  23  93 N14       30.35S VSB 3/4 WCI  13
MAURICE *      SNOW      25  25 100 N16       30.34S VSB 1/2 WCI  12
SHELDON *      SNOW      25  25 100 N13G20    30.33S VSB 1/2 WCI  13
SIOUX CITY     LGT SNOW  27  23  85 N13       30.35R VSB 1   WCI  16
SPENCER        SNOW      27  22  81 N15       30.34S VSB 1/2 WCI  15
STORM LAKE *   LGT SNOW  27  27 100 NE15      30.28R VSB 3/4 WCI  15
$$

IAZ055>058-069>071-079>083-090>094-251800-
   SOUTHWEST IOWA

CITY           SKY/WX    TMP DP  RH WIND       PRES   REMARKS
ATLANTIC *     CLOUDY    32  28  86 N9        30.25S WCI  24
AUDUBON *      CLOUDY    30  27  86 N9        30.28R WCI  22
COUNCIL BLFS * CLOUDY    30  27  86 N13       30.26S WCI  20
CRESTON *      CLOUDY    34  30  86 NE12      30.22S WCI  25
HARLAN  *      CLOUDY    30  25  80 N13       30.27S WCI  20
LAMONI         CLOUDY    36  29  75 NE13      30.20S WCI  27
RED OAK *      CLOUDY    34  27  75 NE12G18   30.25F WCI  25
SHENANDOAH *   MIX PCPN  34  30  86 N9G15     30.25S WCI  26
$$

IAZ047>049-059>061-072>074-084-251800-
   CENTRAL IOWA

CITY           SKY/WX    TMP DP  RH WIND       PRES   REMARKS
AMES           CLOUDY    34  25  69 N10       30.28S WCI  26
ANKENY *       CLOUDY    36  27  69 NE9       30.27S WCI  29
BOONE *        CLOUDY    32  28  86 NE13      30.26R WCI  22
CHARITON *     CLOUDY    36  34  93 N10       30.22R WCI  28
DES MOINES     CLOUDY    36  25  64 N10       30.25F WCI  28
GRINNELL*      CLOUDY    40  28  63 NE10      30.25F WCI  33
MARSHALLTOWN   CLOUDY    34  25  69 NE13      30.26S WCI  25
NEWTON *       CLOUDY    36  27  69 NE13      30.24F WCI  27
PELLA *        CLOUDY    36  27  70 NE7       30.25F WCI  30
PERRY *        CLOUDY    33  25  72 NE9       30.27S WCI  26
$$

IAZ004>006-015-016-023>025-035-036-251800-
   NORTH CENTRAL IOWA

CITY           SKY/WX    TMP DP  RH WIND       PRES   REMARKS
ALGONA *       FOG       28  28 100 N14       30.31S VSB 1/2 WCI  17
CLARION *      FOG       30  30 100 NE12      30.31R VSB 3/4 WCI  21
ESTHERVILLE    LGT SNOW  25  23  92 N12       30.34F VSB 3/4 WCI  14
FORT DODGE *   LGT SNOW  29  27  92 NE9       30.31S VSB 3/4 WCI  20
MASON CITY     LGT SNOW  28  25  88 N13       30.32S VSB 1   WCI  17
FOREST CITY *  LGT SNOW  30  30 100 N10       30.32S VSB 1   WCI  21
IOWA FALLS *   LGT SNOW  33  23  68 NE9       30.30R WCI  25
$$

IAZ007>011-017>019-026>030-037>042-050>054-066-251800-
   NORTHEAST IOWA

CITY           SKY/WX    TMP DP  RH WIND       PRES   REMARKS
CEDAR RAPIDS   CLOUDY    36  25  64 NE10      30.24S WCI  28
CHARLES CITY * PTSUNNY   32  21  64 NE10      30.30S WCI  24
CLINTON *      CLOUDY    38  28  67 NE14      30.24R WCI  30
DECORAH *        N/A     32  21  64 NE8       30.29R WCI  25
DUBUQUE        PTSUNNY   35  23  61 NE12      30.25S WCI  27
MONTICELLO *   CLOUDY    37  25  60 NE12      30.25F WCI  30
OELWEIN *      SUNNY     34  21  60 NE10      30.28S WCI  26
WATERLOO       CLOUDY    35  22  58 NE12      30.28F WCI  27
$$

IAZ064-065-067-068-078-251800-
   EAST CENTRAL IOWA

CITY           SKY/WX    TMP DP  RH WIND       PRES   REMARKS
DAVENPORT      CLOUDY    39  29  67 NE13      30.23F WCI  31
IOWA CITY      CLOUDY    38  28  67 N10       30.25F WCI  31
MT. PLEASANT * PTSUNNY   41  34  75 NE10      30.20S
MUSCATINE *    CLOUDY    39  30  70 NE13      30.24R WCI  32
QUAD CITIES    CLOUDY    41  30  65 N9        30.21S
$$

IAZ062-063-075>077-085>089-095>099-251800-
   SOUTHEAST IOWA

CITY           SKY/WX    TMP DP  RH WIND       PRES   REMARKS
BURLINGTON     CLOUDY    40  33  76 NE13      30.18F WCI  32
FAIRFIELD *    CLOUDY    37  34  87 NE14      30.21S WCI  29
FORT MADISON * CLOUDY    41  34  75 NE8       30.19R
KEOKUK *       CLOUDY    41  36  81 NE9       30.17S
OSKALOOSA *    CLOUDY    38  30  72 NE13      30.23S WCI  30
OTTUMWA        CLOUDY    36  29  75 N10       30.21F WCI  28
WASHINGTON *   PTSUNNY   37  30  75 NE14      30.20F WCI  29
$$

ABBREVIATIONS USED IN REMARKS
   TC - TEMPERATURES IN CELSIUS
  WCI - WIND CHILL INDEX
   HX - HEAT INDEX
  VSB - VISIBILITY
$$




USA.gov is the U.S. government's official web portal to all federal, state and local government web resources and services.